Bierset, Belgium

2:00 AM CEST on April 25, 2018 (GMT +0200)
Liege

Weather History for EBLG - November, 2012

Change the Weather History Date:

Monday, November 5, 2012

  Actual Average Record
Temperature  
Mean Temperature 40 °F -  
Max Temperature 46 °F 45 °F 66 °F (2011)
Min Temperature 35 °F 36 °F 35 °F (2012)
Degree Days  
Heating Degree Days 24    
Moisture  
Dew Point 39 °F    
Average Humidity 87    
Maximum Humidity 100    
Minimum Humidity 74    
Precipitation  
Precipitation 0.16 in - - ()
Sea Level Pressure  
Sea Level Pressure 29.62 in    
Wind  
Wind Speed 11 mph ()    
Max Wind Speed 17 mph    
Max Gust Speed -    
Visibility 5.5 miles    
Events Fog , Rain    
Averages and records for this station are not official NWS values.
T = Trace of Precipitation, MM = Missing Value Source: Averaged Metar Reports

Daily Weather History Graph

Daily Weather History Graph

Search for Another Location

Airport or City:

Astronomy

Nov. 05, 2012 Rise Set
Actual Time 7:36 AM CET 5:06 PM CET
Civil Twilight 7:01 AM CET 5:41 PM CET
Nautical Twilight 6:22 AM CET 6:20 PM CET
Astronomical Twilight 5:44 AM CET 6:58 PM CET
Moon 10:26 PM CET (11/5) 12:50 PM CET (11/5)
Length of Visible Light 10h 39m
Length of Day
9h 29m
Waning Gibbous, 65% of the Moon is Illuminated
Nov 5
Waning Gibbous
Nov 7
Last Quarter
Nov 13
New
Nov 20
First Quarter
Nov 28
Full

Hourly Weather History & Observations

Time (CET) Temp. Windchill Dew Point Humidity Pressure Visibility Wind Dir Wind Speed Gust Speed Precip Events Conditions
12:20 AM 44.6 °F 37.4 °F 39.2 °F 81% 29.47 in 6.2 mi SSW 16.1 mph - N/A   Mostly Cloudy
12:50 AM 44.6 °F 37.4 °F 39.2 °F 81% 29.47 in 6.2 mi SSW 16.1 mph - N/A   Mostly Cloudy
1:00 AM 44 °F - 38 °F 74% 29.51 in 19 mi SSW 15.7 mph - -   Mostly Cloudy
1:20 AM 44.6 °F 37.4 °F 37.4 °F 76% 29.47 in 6.2 mi SSW 16.1 mph - N/A   Mostly Cloudy
1:50 AM 44.6 °F 37.8 °F 39.2 °F 81% 29.47 in 6.2 mi SSW 15.0 mph - N/A   Mostly Cloudy
2:20 AM 42.8 °F 35.8 °F 39.2 °F 87% 29.47 in 6.2 mi SSW 13.8 mph - N/A   Scattered Clouds
2:50 AM 42.8 °F 35.8 °F 37.4 °F 81% 29.47 in 6.2 mi SSW 13.8 mph - N/A   Scattered Clouds
3:20 AM 42.8 °F 35.4 °F 37.4 °F 81% 29.47 in 6.2 mi SSW 15.0 mph - N/A   Scattered Clouds
3:50 AM 42.8 °F 36.2 °F 37.4 °F 81% 29.47 in 6.2 mi SSW 12.7 mph - N/A   Scattered Clouds
4:00 AM 42 °F - 38 °F 79% 29.51 in 19 mi SSW 11.2 mph - -   Partly Cloudy
4:20 AM 42.8 °F 35.4 °F 37.4 °F 81% 29.47 in 6.2 mi SSW 15.0 mph - N/A   Partly Cloudy
4:50 AM 42.8 °F 34.8 °F 39.2 °F 87% 29.47 in 6.2 mi SSW 17.3 mph - N/A   Partly Cloudy
5:20 AM 42.8 °F 35.1 °F 39.2 °F 87% 29.50 in 6.2 mi SW 16.1 mph - N/A   Partly Cloudy
5:50 AM 42.8 °F 35.1 °F 39.2 °F 87% 29.50 in 6.2 mi SSW 16.1 mph - N/A   Partly Cloudy
6:20 AM 42.8 °F 35.1 °F 39.2 °F 87% 29.50 in 6.2 mi SW 16.1 mph - N/A   Partly Cloudy
6:50 AM 42.8 °F 35.8 °F 39.2 °F 87% 29.50 in 6.2 mi SW 13.8 mph - N/A   Mostly Cloudy
7:00 AM 42 °F - 39 °F 86% 29.53 in 12 mi SW 13.4 mph - -   Mostly Cloudy
7:20 AM 42.8 °F 36.2 °F 39.2 °F 87% 29.50 in 6.2 mi SW 12.7 mph - N/A   Mostly Cloudy
7:50 AM 42.8 °F 36.6 °F 39.2 °F 87% 29.53 in 6.2 mi SW 11.5 mph - N/A   Mostly Cloudy
8:20 AM 42.8 °F 36.6 °F 39.2 °F 87% 29.53 in 6.2 mi SW 11.5 mph - N/A   Mostly Cloudy
8:50 AM 42.8 °F 37.0 °F 39.2 °F 87% 29.53 in 6.2 mi SW 10.4 mph - N/A   Mostly Cloudy
9:20 AM 42.8 °F 38.0 °F 39.2 °F 87% 29.56 in 6.2 mi WSW 8.1 mph - N/A   Mostly Cloudy
9:50 AM 44.6 °F 39.2 °F 39.2 °F 81% 29.56 in 6.2 mi WSW 10.4 mph - N/A   Mostly Cloudy
10:00 AM 44 °F - 40 °F 80% 29.59 in 11 mi WSW 11.2 mph - -   Mostly Cloudy
10:20 AM 44.6 °F 38.8 °F 41.0 °F 87% 29.56 in 6.2 mi SW 11.5 mph - N/A   Mostly Cloudy
10:50 AM 46.4 °F 40.1 °F 41.0 °F 81% 29.56 in 6.2 mi SW 15.0 mph - N/A   Mostly Cloudy
11:20 AM 44.6 °F 38.8 °F 39.2 °F 81% 29.59 in 6.2 mi WSW 11.5 mph - N/A   Mostly Cloudy
11:50 AM 44.6 °F 38.4 °F 39.2 °F 81% 29.59 in 6.2 mi WSW 12.7 mph - N/A   Mostly Cloudy
12:20 PM 44.6 °F 38.8 °F 39.2 °F 81% 29.59 in 6.2 mi WSW 11.5 mph - N/A   Mostly Cloudy
12:50 PM 44.6 °F 40.2 °F 41.0 °F 87% 29.59 in 5.6 mi West 8.1 mph - N/A Rain Light Rain
1:00 PM 44 °F - 41 °F 83% 29.63 in 6 mi West 8.9 mph - - Rain Light Rain
1:20 PM 44.6 °F 39.7 °F 41.0 °F 87% 29.62 in 4.3 mi WSW 9.2 mph - N/A Rain Rain
1:50 PM 44.6 °F 40.7 °F 41.0 °F 87% 29.62 in 5.0 mi West 6.9 mph - N/A Rain Light Rain
2:20 PM 42.8 °F 38.0 °F 41.0 °F 93% 29.62 in - West 8.1 mph - N/A Rain Rain
2:50 PM 42.8 °F 38.0 °F 41.0 °F 93% 29.62 in 6.2 mi West 8.1 mph - N/A Rain Light Rain
3:20 PM 42.8 °F 38.6 °F 39.2 °F 87% 29.65 in 6.2 mi West 6.9 mph - N/A Rain Light Rain
3:50 PM 42.8 °F 38.0 °F 39.2 °F 87% 29.65 in 6.2 mi West 8.1 mph - N/A Rain Light Rain
4:00 PM 43 °F - 40 °F 85% 29.68 in 6 mi West 8.9 mph - - Rain Rain
4:20 PM 42.8 °F 38.6 °F 39.2 °F 87% 29.65 in 6.2 mi West 6.9 mph - N/A Rain Light Rain
4:50 PM 42.8 °F 39.3 °F 39.2 °F 87% 29.68 in 6.2 mi West 5.8 mph - N/A Rain Light Rain
5:20 PM 42.8 °F 39.3 °F 39.2 °F 87% 29.68 in 6.2 mi WNW 5.8 mph - N/A Rain Light Rain
5:50 PM 42.8 °F 40.1 °F 41.0 °F 93% 29.71 in 2.8 mi NW 4.6 mph - N/A   Mostly Cloudy
6:20 PM 42.8 °F 40.1 °F 41.0 °F 93% 29.71 in 2.2 mi WNW 4.6 mph - N/A   Mostly Cloudy
6:50 PM 42.8 °F 41.1 °F 41.0 °F 93% 29.74 in 1.6 mi WNW 3.5 mph - N/A   Mostly Cloudy
7:00 PM 42 °F - 40 °F 90% 29.77 in 2 mi WNW 4.5 mph - -   Mist
7:20 PM 42.8 °F 40.1 °F 41.0 °F 93% 29.77 in 1.3 mi WNW 4.6 mph - N/A   Mostly Cloudy
7:50 PM 41.0 °F 37.1 °F 39.2 °F 93% 29.77 in 1.3 mi West 5.8 mph - N/A   Mostly Cloudy
8:20 PM 39.2 °F 35.9 °F 37.4 °F 93% 29.80 in 1.3 mi West 4.6 mph - N/A   Scattered Clouds
8:50 PM 37.4 °F 32.8 °F 35.6 °F 93% 29.80 in 2.2 mi West 5.8 mph - N/A   Partly Cloudy
9:20 PM 35.6 °F 30.7 °F 33.8 °F 93% 29.80 in 2.2 mi WSW 5.8 mph - N/A   Mist
9:50 PM 35.6 °F 30.7 °F 35.6 °F 100% 29.83 in 1.4 mi WSW 5.8 mph - N/A   Mist
10:00 PM 36 °F - 35 °F 94% 29.87 in 1 mi WSW 6.7 mph - -   Mist
10:20 PM 35.6 °F 29.2 °F 35.6 °F 100% 29.83 in 1.4 mi WSW 8.1 mph - N/A   Mist
10:50 PM 37.4 °F 32.1 °F 35.6 °F 93% 29.86 in 1.4 mi WSW 6.9 mph - N/A   Scattered Clouds
11:20 PM 35.6 °F 29.9 °F 33.8 °F 93% 29.86 in 0.5 mi WSW 6.9 mph - N/A Fog Fog
11:50 PM 37.4 °F 32.1 °F 35.6 °F 93% 29.86 in 1.1 mi WSW 6.9 mph - N/A Fog Partly Cloudy